カタログに戻る

CZ-2D DEB

運用中SSO
NORAD 35275·DEBRIS·🇨🇳 China

打ち上げ Nov 5, 2008 から Jiuquan Satellite Launch Center

Loading…

次のパス (今後24時間)

TLE

最新Source: Space-Track

元期: Sep 13, 2026, 13:39 UTC

1 35275U 08056E   26256.56888333  .00000630  00000-0  23206-3 0  9991
2 35275  98.6812 302.9707 0127836  24.7578 335.9668 14.31638210921120

AllMySatでCZ-2D DEBをリアルタイム追跡

Download on the App Store